Regional Weather Roundup
Issued by NWS Green Bay, WI

Home | Current Version | Previous Version | Graphics & Text | Print | Product List | Glossary Off
Versions: 1 2 3 4 5 6 7 8 9 10 11 12 13 14 15 16 17 18 19 20 21 22 23 24 25 26 27 28 29 30 31 32 33 34 35 36 37 38 39 40 41 42 43 44 45 46 47 48 49 50

000
ASUS43 KGRB 161359
RWRGRB

NORTH-CENTRAL AND NORTHEAST WISCONSIN REGIONAL WEATHER ROUNDUP
NATIONAL WEATHER SERVICE GREEN BAY WI
900 AM CDT WED APR 16 2014

WIZ005-009-010>012-018-019-161500-
NORTH CENTRAL WISCONSIN

CITY           SKY/WX    TMP DP  RH WIND       PRES   REMARKS
IRONWOOD       CLOUDY    27  10  50 SE5       30.16R
MANITOWISH WTR NOT AVBL
ARBOR VITAE    NOT AVBL
EAGLE RIVER    NOT AVBL
LAND O LAKES   NOT AVBL
RHINELANDER    LGT SNOW  24  18  77 SE9       30.19S
PHILLIPS       NOT AVBL
ANTIGO         NOT AVBL
TOMAHAWK       NOT AVBL
MERRILL        NOT AVBL
$$

WIZ013-073-161500-
NORTHEAST WISCONSIN

CITY           SKY/WX    TMP DP  RH WIND       PRES   REMARKS
IRON MOUNTAIN  CLOUDY    22  17  81 SE5       30.26R
MARINETTE      CLOUDY    30  21  69 SE5       30.30S
$$

WIZ017-030-035>037-045-161500-
CENTRAL WISCONSIN

CITY           SKY/WX    TMP DP  RH WIND       PRES   REMARKS
MEDFORD        NOT AVBL
WAUSAU         MIX PCPN  27  22  81 SE13      30.18F
MOSINEE        CLOUDY    27  25  93 E7        30.20
MARSHFIELD     FLURRIES  30  20  66 SE14G23   30.15F
WISC RAPIDS    CLOUDY    31  21  66 SE10      30.19F
STEVENS POINT  NOT AVBL
WAUPACA        NOT AVBL
SHAWANO        NOT AVBL
CLINTONVILLE   NOT AVBL
$$

WIZ038-039-048-051-161500-
FOX VALLEY

CITY           SKY/WX    TMP DP  RH WIND       PRES   REMARKS
NWS GREEN BAY  CLOUDY    32  27  81 S12       30.29S
APPLETON       CLOUDY    32  25  74 SE7       30.27S
OSHKOSH        CLOUDY    33  26  75 SE9       30.25S
FOND DU LAC    CLOUDY    34  25  69 SE12      30.26S
$$

WIZ022-050-052-161500-
EAST CENTRAL WISCONSIN

CITY           SKY/WX    TMP DP  RH WIND       PRES   REMARKS
STURGEON BAY   CLOUDY    34  21  60 S16       30.31S
MANITOWOC      NOT AVBL
SHEBOYGAN      CLOUDY    34  29  82 S7        30.30R
$$

LMZ563-521-522-541>543-161500-
LAKESHORE

STATION/POSITION TIME  TEMP    WIND        PRES    VSBY  WAVE
                       AIR SEA DIR/SP/G                  HT/PER
                 (UTC) (F)     (DEG/KT/KT) (MB)    (MI)  (FT/S)
SHEBOYGAN LKSHOR 1300   34     150/ 17/ 19 1026.8R
KEWAUNEE LKSHORE 1300   33     170/ 15/ 18 1026.9R
NORTHPORT PIER   1300   31     140/  3/  5 1026.1S
SISTER BAY LKSHO 1300   38        CALM       N/A
MENOMINEE LKSHOR 1300   27     150/  1/  3 1026.9R
$$



USA.gov is the U.S. government's official web portal to all federal, state and local government web resources and services.